Simultaneous Nadir Overpasses (SNOs) Predictions

Prediction of SNOs between AQUA and METOP-A Satellite Orbit:

Table of predicted SNOs for the next 14.0 days since TLE Epoch: 8/4/2018
Index Date (AQUA) Time (AQUA) Lat,Lon (AQUA) SZA (AQUA ) Date (METOP-A) Time (METOP-A) Lat,Lon (METOP-A) SZA (METOP-A ) Distance(km) Time Diff (sec)
1 08/05/2018 04:18:12 73.86, 109.73 56.93 08/05/2018 04:17:06 73.84, 106.97 57.06 85.30 66
2 08/05/2018 05:07:50 -74.48, -84.06 122.39 08/05/2018 05:07:35 -74.48, -84.12 122.38 1.76 15
3 08/05/2018 05:57:18 74.53, 83.45 57.68 08/05/2018 05:58:13 74.55, 83.41 57.69 2.83 55
4 08/07/2018 23:52:27 74.01, 175.85 57.86 08/07/2018 23:51:19 73.97, 173.68 57.94 66.46 68
5 08/08/2018 00:42:03 -74.52, -17.72 121.57 08/08/2018 00:41:50 -74.51, -17.63 121.58 2.83 13
6 08/08/2018 01:31:31 74.57, 149.80 58.50 08/08/2018 01:32:28 74.58, 149.89 58.49 2.93 57
7 08/10/2018 19:26:43 74.16,-118.05 58.83 08/10/2018 19:25:33 74.10,-119.60 58.86 47.67 70
8 08/10/2018 20:16:16 -74.52, 48.74 120.77 08/10/2018 20:16:07 -74.50, 48.73 120.79 2.16 9
9 08/10/2018 21:05:44 74.57,-143.74 59.30 08/10/2018 21:06:45 74.56,-143.76 59.28 0.80 61
10 08/13/2018 15:00:58 74.25, -51.84 59.78 08/13/2018 14:59:47 74.22, -52.88 59.81 31.83 71
11 08/13/2018 15:50:29 -74.51, 115.19 119.93 08/13/2018 15:50:23 -74.53, 115.22 119.92 1.71 6
12 08/13/2018 16:39:57 74.56, -77.29 60.14 08/13/2018 16:41:01 74.59, -77.29 60.15 2.70 64
13 08/16/2018 10:35:13 74.41, 14.24 60.82 08/16/2018 10:34:00 74.34, 13.84 60.79 14.07 73
14 08/16/2018 11:24:41 -74.51,-178.37 119.06 08/16/2018 11:24:39 -74.51,-178.43 119.07 1.86 2




NCC Satellite Simultaneous Nadir Overpasses (SNOs) Prediction Service
